[Iaude] MPEC B83: 2024 BZ1 [a=1.22,e=0.31,i=34.2,H=23.7]
    mpec at marsden.cfa.harvard.edu 
    mpec at marsden.cfa.harvard.edu
       
    Sun Jan 21 09:21:14 EST 2024
    
    
  
M.P.E.C. 2024-B83                              Issued 2024 January 21, 14:19 UT
     The Minor Planet Electronic Circulars contain information on unusual
         minor planets, routine data on comets and natural satellites,
         and occasional editorial announcements.  They are published
    on behalf of Division F of the International Astronomical Union by the
          Minor Planet Center, Smithsonian Astrophysical Observatory,
                          Cambridge, MA 02138, U.S.A.
			  
             Prepared using the Tamkin Foundation Computer Network
                              MPC at CFA.HARVARD.EDU
            URL https://www.minorplanetcenter.net/    ISSN 1523-6714
                                    2024 BZ1                                    
Observations:
     K24B01Z* C2024 01 19.35939808 11 45.748+45 43 19.24         21.57GVEB083V00
     K24B01Z  C2024 01 19.36489908 11 42.353+45 42 51.55         21.23GVEB083V00
     K24B01Z  C2024 01 19.37040008 11 38.944+45 42 23.69         21.05GVEB083V00
     K24B01Z  C2024 01 19.40453808 11 17.732+45 39 30.02         21.51GVEB083V00
     K24B01Z  C2024 01 19.41199308 11 13.103+45 38 51.83         21.84GVEB083V00
     K24B01Z  C2024 01 19.41846908 11 09.074+45 38 18.64         21.35GVEB083V00
     K24B01Z  C2024 01 19.42397008 11 05.683+45 37 50.12               VEB083V00
     K24B01Z 1C2024 01 20.46871108 00 30.629+44 04 12.97         20.88GVEB083G96
     K24B01Z 1C2024 01 20.46947308 00 30.172+44 04 07.86         21.39GVEB083G96
     K24B01Z 1C2024 01 20.47023608 00 29.675+44 04 03.97         21.51GVEB083G96
     K24B01Z 1C2024 01 20.47099808 00 29.167+44 03 58.61         21.72GVEB083G96
     K24B01Z KC2024 01 20.48876 08 00 18.21 +44 02 15.7                VEB083291
     K24B01Z KC2024 01 20.49254 08 00 15.83 +44 01 53.3          21.1 RVEB083291
     K24B01Z KC2024 01 20.49629 08 00 13.47 +44 01 31.7          21.6 RVEB083291
     K24B01Z KB2024 01 20.95503 07 55 35.01 +43 16 43.3                VEB083204
     K24B01Z KB2024 01 21.05481 07 54 31.70 +43 06 36.0          20.9 GVEB083204
     K24B01Z HB2024 01 21.08372 07 54 13.42 +43 03 36.8                VEB083204
Observer details:
204 Schiaparelli Observatory.  Observers L. Buzzi, G. Galli.  0.84-m f/3.5
    reflector + CMO.
291 LPL/Spacewatch II.  Observer R. A. Mastaler.  1.8-m f/2.7 reflector + CCD.
G96 Mt. Lemmon Survey.  Observer A. R. Gibbs.  Measurers T. Beuden, V. F.
    Carvajal, D. Fay, J. B. Fazekas, D. C. Fuls, A. R. Gibbs, A. D. Grauer, H.
    Groeller, J. K. Hogan, R. A. Kowalski, S. M. Larson, G. J. Leonard, D.
    Rankin, R. L. Seaman, F. C. Shelly, K. W. Wierzchos.  1.5-m reflector +
    10K CCD.
V00 Kitt Peak-Bok.  Observer R. A. Mastaler.  Measurers M. J. Brucker, C. E.
    Woodward, D. Fay, J. B. Fazekas, D. C. Fuls, A. R. Gibbs, H. Groeller, J.
    K. Hogan, R. A. Kowalski, S. M. Larson, C. Lejoly, G. J. Leonard, R. A.
    Mastaler, R. S. McMillan, D. Rankin, R. L. Seaman, A. Serrano, F. C.
    Shelly, K. W. Wierzchos.  2.25-m reflector + 4x4K mosaic CCD.
Orbital elements:
2024 BZ1                                                 Earth MOID = 0.0561 AU
Epoch 2023 Sept. 13.0 TT = JDT 2460200.5                Veres                   
M 200.50395              (2000.0)            P               Q                  
n   0.73153838     Peri.  273.85225     -0.64484530     +0.60665295             
a   1.2198637      Node   304.19140     -0.25339438     -0.74356504             
e   0.3101163      Incl.   34.19834     -0.72108656     -0.28121742             
P   1.35           H   23.76          G   0.15           U   9                  
Residuals in seconds of arc
240119 V00  0.1-  0.1+    240119 V00  0.2-  0.2-    240120 291  0.5+  0.4-
240119 V00  0.2+  0.2+    240120 G96  0.0   0.4+    240120 291  0.2+  0.0
240119 V00  0.2+  0.1+    240120 G96  0.2+  0.2-    240120 204  0.1+  0.5+
240119 V00  0.0   0.1+    240120 G96  0.0   0.3+    240121 204  0.1-  0.2+
240119 V00  0.1-  0.1+    240120 G96  0.4-  0.6-    240121 204  0.2-  0.4-
240119 V00  0.3-  0.1+    240120 291  0.8+  0.1-
Ephemeris:
2024 BZ1                 a,e,i = 1.22, 0.31, 34                  q = 0.8416
Date    TT    R. A. (2000) Decl.     Delta      r    Elong.  Phase     V
2023 12 22    10 33 31.2 +55 07 06   0.4943  1.3089   121.0    40.1    24.4
...
2024 01 06    09 53 22.3 +54 12 18   0.3305  1.2404   135.3    33.9    23.2
...
2024 01 14    09 01 05.8 +51 05 35   0.2523  1.2018   146.3    27.0    22.4
...
2024 01 20    08 05 20.0 +44 47 42   0.2034  1.1721   155.5    20.3    21.7
2024 01 21    07 55 07.4 +43 12 18   0.1965  1.1671   156.7    19.4    21.5
2024 01 22    07 44 47.7 +41 25 47   0.1901  1.1621   157.6    18.8    21.4
...
2024 01 28    06 43 50.5 +26 45 54   0.1633  1.1319   152.4    23.8    21.2
...
2024 02 05    05 37 52.6 +01 40 42   0.1667  1.0913   125.6    47.3    21.8
...
2024 02 20    04 28 49.2 -27 46 51   0.2568  1.0161    88.8    76.6    23.5
M. P. C. Staff               (C) Copyright 2024 MPC           M.P.E.C. 2024-B83
    
    
More information about the Iaude
mailing list